Regional Weather Roundup
Issued by NWS

Home | Current Version | Previous Version | Graphics & Text | Print | Product List | Glossary On
Versions: 1 2 3 4 5 6 7 8 9 10 11 12 13 14 15 16 17 18 19 20 21 22 23 24 25 26 27 28 29 30 31 32 33 34 35 36 37 38 39 40 41 42 43 44 45 46 47 48 49 50
000
ASUS43 KOAX 261510
RWRNE

WEATHER ROUNDUP FOR NEBRASKA
NATIONAL WEATHER SERVICE OMAHA NE
900 AM CST SUN FEB 26 2017

NOTES: SATELLITE DATA IS BEING USED TO AUGMENT CLOUD COVER ABOVE
       12000 FEET.
       "FAIR" INDICATES FEW OR NO CLOUDS BELOW 12,000 FEET WITH NO
       SIGNIFICANT WEATHER AND/OR OBSTRUCTIONS TO VISIBILITY.

  * THESE STATIONS DO NOT REPORT WEATHER SUCH AS RAIN...SNOW OR FOG.

NEZ001>004-019>022-054>056-261600-
NEBRASKA PANHANDLE

CITY           SKY/WX    TMP DP  RH WIND       PRES   REMARKS
SCOTTSBLUFF    CLOUDY    10   1  67 N5        29.84R WCI   2
ALLIANCE       CLOUDY    -1  -7  75 W8        29.82R WCI -15
CHADRON        SUNNY      8  -1  66 NW5       29.85R WCI   0
KIMBALL        SUNNY     14   4  63 NW10      29.82R WCI   2
SIDNEY         SUNNY     20   7  57 NW17      29.84R WCI   5
$$

NEZ057>060-069>072-079>082-261600-
SOUTHWEST NEBRASKA

CITY           SKY/WX    TMP DP  RH WIND       PRES   REMARKS
NORTH PLATTE   SUNNY     22  13  68 W8        29.88R WCI  12
IMPERIAL       SUNNY     25   9  50 W8        29.89R WCI  16
LEXINGTON      SUNNY     27  16  63 W12       29.90S WCI  17
MCCOOK         SUNNY     26  18  71 W5        29.93R WCI  20
OGALLALA       SUNNY     20  10  65 W8        29.88R WCI  11
$$

NEZ005>010-023>029-035>040-094-261600-
NORTH CENTRAL NEBRASKA

CITY           SKY/WX    TMP DP  RH WIND       PRES   REMARKS
VALENTINE      SUNNY     10   2  69 W12       29.84R WCI  -5
AINSWORTH      SUNNY     16   9  75 W9        29.84R WCI   4
BROKEN BOW     SUNNY     22  10  60 NW6       29.87R WCI  14
O`NEILL        SUNNY     20  11  70 W9        29.86R WCI   9
ORD            SUNNY     22  10  60 CALM      29.88R
THEDFORD       SUNNY     17   7  65 W7        29.86R WCI   7
$$

NEZ041-046>049-061>064-073>077-083>087-261600-
SOUTH CENTRAL NEBRASKA

CITY           SKY/WX    TMP DP  RH WIND       PRES   REMARKS
GRAND ISLAND   SUNNY     29  17  61 W14       29.91R WCI  18
AURORA         SUNNY     30  19  63 W10       29.91R WCI  21
HASTINGS       SUNNY     30  16  56 W12       29.93R WCI  20
HEBRON         SUNNY     36  22  57 SW12      29.94S WCI  28
HOLDREGE       SUNNY     30  14  50 W10       29.91S WCI  21
KEARNEY *      SUNNY     28  12  50 W13       29.91R WCI  18
YORK           SUNNY     28  21  74 W10       29.92R WCI  19
$$

NEZ011>018-030>034-042>045-261600-
NORTHEAST NEBRASKA

CITY           SKY/WX    TMP DP  RH WIND       PRES   REMARKS
NORFOLK        SUNNY     21  11  65 W8        29.88R WCI  11
ALBION         SUNNY     21  11  65 CALM      29.89R
BLAIR          SUNNY     30  20  65 SW12      29.90R WCI  21
FREMONT        SUNNY     32  18  56 W15       29.91R WCI  21
TEKAMAH        SUNNY     27  16  63 W14       29.90R WCI  16
WAYNE          SUNNY     22  12  64 CALM      29.88R
$$

NEZ050>053-065>068-078-088>093-261600-
SOUTHEAST NEBRASKA

CITY           SKY/WX    TMP DP  RH WIND       PRES   REMARKS
LINCOLN        SUNNY     34  20  56 W9        29.95R WCI  27
OMAHA EPPLEY   MOSUNNY   36  18  48 W12       29.92R WCI  28
BEATRICE       SUNNY     38  24  56 S15       29.93S WCI  29
FALLS CITY     CLOUDY    38  28  67 SW15G24   29.97R WCI  29
NEBRASKA CITY  SUNNY     37  22  54 W10       29.94R WCI  30
PLATTSMOUTH    SUNNY     34  22  61 SW13      29.93R WCI  25
$$

NEZ044-045-051>053-067-261600-
OMAHA AREA

CITY           SKY/WX    TMP DP  RH WIND       PRES   REMARKS
OMAHA EPPLEY   MOSUNNY   36  18  48 W12       29.92R WCI  28
BLAIR          SUNNY     30  20  65 SW12      29.90R WCI  21
FREMONT        SUNNY     32  18  56 W15       29.91R WCI  21
MILLARD        SUNNY     36  22  57 W8        29.93R WCI  30
OFFUTT AFB     SUNNY     35  22  58 W8        29.92R WCI  29
PLATTSMOUTH    SUNNY     34  22  61 SW13      29.93R WCI  25
WAHOO          FAIR      31  19  63 SW9       29.92R WCI  22
$$



USA.gov is the U.S. government's official web portal to all federal, state and local government web resources and services.